User: anonymous   Login
Location: Unspecified
(0.0000°N, 0.0000°E)
Time: 02:08:57
(UTC+00:00)
Language:

STARLINK-32363 - Orbit

View from above orbital plane
View from above orbital plane
View from above satellite
View from above satellite

Ground track
Ground track

The orbit is defined by the following mean orbital elements,

1 61678U          26145.23887323 +.00000000 +00000-0 +13172-4 0 00003
2 61678  53.1607  94.2392 0001258  94.8463 265.2683 15.34386588    04
Epoch (UTC): 25 May 2026 05:43:58
Eccentricity: 0.0001258
inclination: 53.1607°
perigee height: 462 km
apogee height: 464 km
right ascension of ascending node: 94.2392°
argument of perigee: 94.8463°
revolutions per day: 15.34386588
mean anomaly at epoch: 265.2683°

The dashed part of the orbit path shows where the satellite is in the earth's shadow,  

DLR